Location: Amherst
(42.5000°N, 72.5000°W)
Time: 02:15:35
(UTC-04:00)

ISS - Pass Details

Date: 19 July 2018
Orbit: 402 x 408 km, 51.6° (Epoch: 16 July)

Event Time Altitude Azimuth Distance (km) Brightness Sun altitude
Rises 21:35:34 0° 215° (SW) 2,305 -0.1 -11.7°
Reaches altitude 10° 21:37:44 10° 206° (SSW) 1,451 -1.2 -12.0°
Maximum altitude 21:40:44 35° 138° (SE) 666 -3.3 -12.4°
Drops below altitude 10° 21:43:46 10° 71° (ENE) 1,462 -1.3 -12.8°
Sets 21:45:57 0° 62° (ENE) 2,326 -0.2 -13.1°
